Location: G�kdere
(37.0328°N, 30.9000°E)
Time: 04:38:00
(UTC+00:00)

Cosmos 2278 Rocket - Pass Details

Date: 03 March 2021
Orbit: 842 x 845 km, 71.0° (Epoch: 20 April)

Event Time Altitude Azimuth Distance (km) Brightness Sun altitude
Rises 18:44:06 0° 342° (NNW) 3,409 5.8 -34.6°
Reaches altitude 10° 18:46:36 10° 347° (NNW) 2,470 4.9 -35.0°
Enters shadow 18:48:20 20° 352° (N) 1,856 4.2 -35.3°
